GW1066 Weather Reports


Display with metric or nautical units.
time (UTC)temp
F
wind
direction
speed
MPH
gust
MPH
rain 1hr
in
rain 24hr
in
rain mn
in
humidity
%
barometer
mb
20260503182904 55 179 0.0 2.0 0.00 0.00 0.00 52 1018.0
20260503182804 55 179 0.0 2.0 0.00 0.00 0.00 52 1018.2
20260503182725 55 185 0.0 1.0 0.00 0.00 0.00 52 1018.3
20260503182604 55 0 0.0 0.0 0.00 0.00 0.00 52 1018.1
20260503182505 55 0 0.0 0.0 0.00 0.00 0.00 52 1018.1
20260503182404 55 0 0.0 0.0 0.00 0.00 0.00 52 1018.1
20260503182305 55 168 0.0 2.0 0.00 0.00 0.00 52 1018.2
20260503182204 56 168 0.0 2.0 0.00 0.00 0.00 52 1018.0
20260503182104 56 168 0.0 2.0 0.00 0.00 0.00 52 1018.0
20260503182005 56 168 0.0 2.0 0.00 0.00 0.00 51 1018.1
20260503181925 56 168 0.0 2.0 0.00 0.00 0.00 51 1018.1
20260503181804 56 162 0.0 3.0 0.00 0.00 0.00 51 1018.1
20260503181704 56 162 0.0 3.0 0.00 0.00 0.00 51 1018.2
20260503181604 56 162 0.0 3.0 0.00 0.00 0.00 51 1018.1
20260503181505 56 162 0.0 3.0 0.00 0.00 0.00 51 1018.1
20260503181404 56 162 0.0 3.0 0.00 0.00 0.00 50 1018.3
20260503181304 56 160 0.0 3.0 0.00 0.00 0.00 50 1018.2
20260503181204 56 157 0.0 3.0 0.00 0.00 0.00 50 1018.2
20260503181104 56 160 0.0 3.0 0.00 0.00 0.00 50 1018.1
20260503181004 57 161 0.0 3.0 0.00 0.00 0.00 50 1018.2
20260503180904 57 172 0.0 3.0 0.00 0.00 0.00 50 1018.2
20260503180804 57 185 0.0 3.0 0.00 0.00 0.00 50 1018.3
20260503180704 57 196 0.0 2.0 0.00 0.00 0.00 50 1018.1
20260503180625 57 196 0.0 2.0 0.00 0.00 0.00 50 1018.0
20260503180504 57 196 0.0 2.0 0.00 0.00 0.00 50 1018.3
20260503180404 57 196 0.0 2.0 0.00 0.00 0.00 50 1018.2
20260503180304 57 196 0.0 2.0 0.00 0.00 0.00 49 1018.3
20260503180204 57 196 0.0 2.0 0.00 0.00 0.00 49 1018.2
20260503180104 57 200 0.0 2.0 0.00 0.00 0.00 50 1017.9
20260503180005 56 195 0.0 2.0 0.00 0.00 0.00 50 1018.1
20260503175904 56 169 0.0 2.0 0.00 0.00 0.00 50 1018.0
20260503175804 56 169 0.0 2.0 0.00 0.00 0.00 51 1018.1
20260503175704 56 167 0.0 1.0 0.00 0.00 0.00 51 1017.9
20260503175604 56 167 0.0 1.0 0.00 0.00 0.00 51 1018.1
20260503175504 56 167 0.0 1.0 0.00 0.00 0.00 51 1018.1
20260503175404 56 167 0.0 1.0 0.00 0.00 0.00 51 1018.2
20260503175305 56 167 0.0 1.0 0.00 0.00 0.00 51 1018.3
20260503175204 56 167 0.0 1.0 0.00 0.00 0.00 51 1018.2
20260503175104 56 167 0.0 1.0 0.00 0.00 0.00 51 1018.0
20260503175025 56 167 0.0 1.0 0.00 0.00 0.00 51 1018.1
20260503174904 57 0 0.0 0.0 0.00 0.00 0.00 52 1017.9
20260503174804 57 0 0.0 0.0 0.00 0.00 0.00 52 1018.1
20260503174704 57 0 0.0 0.0 0.00 0.00 0.00 51 1018.0
20260503174604 57 0 0.0 0.0 0.00 0.00 0.00 51 1018.1
20260503174504 57 0 0.0 0.0 0.00 0.00 0.00 50 1018.2
20260503174404 57 0 0.0 0.0 0.00 0.00 0.00 50 1018.2
20260503174304 57 0 0.0 0.0 0.00 0.00 0.00 50 1017.9
20260503174225 57 0 0.0 0.0 0.00 0.00 0.00 50 1018.0
20260503174104 57 0 0.0 0.0 0.00 0.00 0.00 50 1018.1
20260503174004 57 0 0.0 0.0 0.00 0.00 0.00 50 1018.1
20260503173904 57 0 0.0 0.0 0.00 0.00 0.00 50 1018.0
20260503173825 58 0 0.0 0.0 0.00 0.00 0.00 49 1018.2
20260503173704 58 0 0.0 0.0 0.00 0.00 0.00 49 1018.2
20260503173625 58 0 0.0 0.0 0.00 0.00 0.00 49 1018.1
20260503173504 58 0 0.0 0.0 0.00 0.00 0.00 49 1018.0
20260503173404 58 0 0.0 0.0 0.00 0.00 0.00 49 1018.0
20260503173325 58 171 0.0 1.0 0.00 0.00 0.00 48 1018.0
20260503173204 58 175 0.0 1.0 0.00 0.00 0.00 48 1017.9
20260503173104 58 174 0.0 2.0 0.00 0.00 0.00 48 1018.0
20260503173004 58 174 0.0 2.0 0.00 0.00 0.00 48 1018.0
20260503172904 58 174 0.0 2.0 0.00 0.00 0.00 48 1018.0
20260503172804 58 174 0.0 2.0 0.00 0.00 0.00 48 1018.1
20260503172704 58 174 0.0 2.0 0.00 0.00 0.00 48 1018.0
20260503172625 59 174 0.0 2.0 0.00 0.00 0.00 48 1018.0
20260503172525 59 174 0.0 2.0 0.00 0.00 0.00 48 1018.0
20260503172425 59 174 0.0 2.0 0.00 0.00 0.00 47 1018.0
20260503172305 59 175 0.0 2.0 0.00 0.00 0.00 48 1018.0
20260503172204 59 173 0.0 2.0 0.00 0.00 0.00 48 1018.0
20260503172104 59 0 0.0 0.0 0.00 0.00 0.00 47 1017.9
20260503172004 59 0 0.0 0.0 0.00 0.00 0.00 47 1018.0
20260503171904 59 0 0.0 0.0 0.00 0.00 0.00 47 1018.0
20260503171804 59 0 0.0 0.0 0.00 0.00 0.00 47 1018.0
20260503171704 59 0 0.0 0.0 0.00 0.00 0.00 47 1017.9
20260503171604 60 0 0.0 0.0 0.00 0.00 0.00 47 1018.0
20260503171504 60 0 0.0 0.0 0.00 0.00 0.00 47 1018.0
20260503171404 60 0 0.0 0.0 0.00 0.00 0.00 47 1018.0
20260503171325 60 0 0.0 0.0 0.00 0.00 0.00 47 1018.1
20260503171204 60 0 0.0 0.0 0.00 0.00 0.00 47 1017.9
20260503171104 60 0 0.0 0.0 0.00 0.00 0.00 47 1018.0
20260503171025 60 0 0.0 0.0 0.00 0.00 0.00 46 1018.0
20260503170904 60 0 0.0 0.0 0.00 0.00 0.00 47 1018.0
20260503170825 60 0 0.0 0.0 0.00 0.00 0.00 46 1018.1
20260503170704 60 0 0.0 0.0 0.00 0.00 0.00 46 1018.1
20260503170604 60 0 0.0 0.0 0.00 0.00 0.00 46 1017.8
20260503170504 61 0 0.0 0.0 0.00 0.00 0.00 46 1018.1
20260503170404 61 0 0.0 0.0 0.00 0.00 0.00 46 1018.3
20260503170304 61 0 0.0 0.0 0.00 0.00 0.00 46 1018.1
20260503170204 61 170 0.0 1.0 0.00 0.00 0.00 46 1018.1
20260503170125 61 170 0.0 1.0 0.00 0.00 0.00 46 1018.0
20260503160204 66 178 0.0 2.0 0.00 0.00 0.00 38 1018.1
20260503160104 66 180 0.0 1.0 0.00 0.00 0.00 38 1018.1
20260503151004 67 191 0.0 6.0 0.00 0.00 0.00 35 1019.0
20260503150904 67 193 0.0 6.0 0.00 0.00 0.00 35 1018.8
20260503150804 67 193 0.0 6.0 0.00 0.00 0.00 35 1018.8
20260503150704 68 193 0.0 6.0 0.00 0.00 0.00 35 1018.7
20260503150604 68 192 0.0 6.0 0.00 0.00 0.00 36 1018.8
20260503150525 68 193 0.0 6.0 0.00 0.00 0.00 35 1018.8
20260503150404 67 194 1.0 6.0 0.00 0.00 0.00 36 1018.6
20260503150304 68 196 1.0 6.0 0.00 0.00 0.00 35 1018.8
20260503150204 68 197 1.0 6.0 0.00 0.00 0.00 35 1018.9
20260503150104 68 206 0.0 4.0 0.00 0.00 0.00 35 1018.9
20260503140304 68 213 0.0 3.0 0.00 0.00 0.00 33 1019.8
20260503140204 68 212 0.0 3.0 0.00 0.00 0.00 33 1019.9
20260503140125 68 205 0.0 3.0 0.00 0.00 0.00 34 1020.0
20260503131404 67 179 0.0 3.0 0.00 0.00 0.00 33 1020.6
20260503131305 67 179 0.0 3.0 0.00 0.00 0.00 35 1020.8
20260503131226 67 177 0.0 3.0 0.00 0.00 0.00 35 1020.7
20260503131125 67 175 0.0 3.0 0.00 0.00 0.00 34 1020.8
20260503131004 67 171 0.0 3.0 0.00 0.00 0.00 35 1020.6
20260503130904 67 195 0.0 3.0 0.00 0.00 0.00 34 1020.8
20260503130804 67 202 0.0 3.0 0.00 0.00 0.00 35 1020.6
20260503130704 67 209 0.0 3.0 0.00 0.00 0.00 35 1020.7
20260503130604 66 219 1.0 3.0 0.00 0.00 0.00 35 1020.7
20260503130504 66 221 1.0 4.0 0.00 0.00 0.00 35 1020.7
20260503130404 66 223 1.0 6.0 0.00 0.00 0.00 34 1021.0
20260503130304 66 223 1.0 6.0 0.00 0.00 0.00 35 1021.0
20260503130204 65 224 1.0 6.0 0.00 0.00 0.00 34 1020.6
20260503130125 65 224 1.0 6.0 0.00 0.00 0.00 35 1020.6
20260503120104 65 208 0.0 6.0 0.00 0.00 0.00 36 1021.6
20260503110804 62 199 1.0 6.0 0.00 0.00 0.00 36 1021.9
20260503110704 62 198 1.0 6.0 0.00 0.00 0.00 36 1022.0
20260503110625 62 197 1.0 6.0 0.00 0.00 0.00 36 1022.1
20260503110504 62 197 1.0 6.0 0.00 0.00 0.00 36 1022.3
20260503110426 62 198 1.0 6.0 0.00 0.00 0.00 36 1022.4
20260503110304 62 196 1.0 6.0 0.00 0.00 0.00 36 1022.2
20260503110204 61 198 1.0 6.0 0.00 0.00 0.00 37 1022.2
20260503110104 61 204 1.0 6.0 0.00 0.00 0.00 37 1022.1
20260503100204 58 199 0.0 3.0 0.00 0.00 0.00 39 1022.9
20260503100125 58 200 0.0 3.0 0.00 0.00 0.00 38 1022.8
20260503090504 57 188 0.0 3.0 0.00 0.00 0.00 38 1023.4
20260503090404 57 197 0.0 3.0 0.00 0.00 0.00 40 1023.4
20260503090304 57 200 0.0 4.0 0.00 0.00 0.00 40 1023.5
20260503090204 57 202 0.0 4.0 0.00 0.00 0.00 40 1023.5
20260503090104 57 196 0.0 4.0 0.00 0.00 0.00 40 1023.6
20260503081604 56 180 0.0 1.0 0.00 0.00 0.00 41 1023.7
20260503081504 57 180 0.0 1.0 0.00 0.00 0.00 41 1023.6
20260503081404 57 169 0.0 1.0 0.00 0.00 0.00 41 1023.6
20260503081304 57 136 0.0 2.0 0.00 0.00 0.00 41 1023.6
20260503081204 57 137 0.0 2.0 0.00 0.00 0.00 41 1023.8
20260503081125 57 150 0.0 2.0 0.00 0.00 0.00 41 1023.6
20260503081025 57 164 0.0 2.0 0.00 0.00 0.00 41 1023.6
20260503080904 57 151 0.0 2.0 0.00 0.00 0.00 41 1023.9
20260503080804 57 160 0.0 2.0 0.00 0.00 0.00 41 1023.9
20260503080704 57 160 0.0 2.0 0.00 0.00 0.00 41 1023.8
20260503080604 57 160 0.0 2.0 0.00 0.00 0.00 42 1023.7
20260503080504 57 160 0.0 2.0 0.00 0.00 0.00 40 1024.0
20260503080404 56 165 0.0 2.0 0.00 0.00 0.00 41 1023.6
20260503080304 56 183 0.0 2.0 0.00 0.00 0.00 40 1023.8
20260503080204 57 183 0.0 2.0 0.00 0.00 0.00 40 1023.8
20260503080104 57 173 0.0 1.0 0.00 0.00 0.00 41 1023.8
20260503072904 56 193 0.0 3.0 0.00 0.00 0.00 43 1023.7
20260503072804 56 193 0.0 3.0 0.00 0.00 0.00 42 1023.7
20260503072704 56 192 0.0 3.0 0.00 0.00 0.00 42 1023.8
20260503072604 56 194 0.0 3.0 0.00 0.00 0.00 42 1023.7
20260503072525 56 194 0.0 3.0 0.00 0.00 0.00 42 1024.0
20260503072425 56 194 0.0 3.0 0.00 0.00 0.00 43 1024.0
20260503072305 56 193 0.0 3.0 0.00 0.00 0.00 42 1023.7
20260503072204 56 187 0.0 3.0 0.00 0.00 0.00 43 1023.9
20260503072104 56 194 0.0 3.0 0.00 0.00 0.00 42 1023.8
20260503072004 56 192 0.0 4.0 0.00 0.00 0.00 42 1023.9
20260503071925 56 190 0.0 4.0 0.00 0.00 0.00 42 1023.8
20260503071825 56 190 0.0 4.0 0.00 0.00 0.00 41 1023.8
20260503071704 56 190 0.0 4.0 0.00 0.00 0.00 41 1023.7
20260503071604 56 189 0.0 4.0 0.00 0.00 0.00 41 1023.7
20260503071504 56 188 0.0 4.0 0.00 0.00 0.00 42 1023.7
20260503071404 56 189 0.0 4.0 0.00 0.00 0.00 42 1024.0
20260503071304 56 189 0.0 4.0 0.00 0.00 0.00 42 1024.0
20260503071204 56 193 0.0 4.0 0.00 0.00 0.00 42 1023.8
20260503071104 56 178 0.0 4.0 0.00 0.00 0.00 42 1023.7
20260503071004 56 187 0.0 2.0 0.00 0.00 0.00 40 1023.8
20260503070904 56 199 0.0 4.0 0.00 0.00 0.00 41 1023.9
20260503070804 56 191 0.0 4.0 0.00 0.00 0.00 41 1024.0
20260503070704 56 191 0.0 4.0 0.00 0.00 0.00 41 1023.7
20260503070604 56 194 0.0 4.0 0.00 0.00 0.00 41 1023.9
20260503070504 56 195 0.0 4.0 0.00 0.00 0.00 41 1023.9
20260503070404 56 196 0.0 4.0 0.00 0.00 0.00 41 1023.9
20260503070304 56 199 0.0 4.0 0.00 0.00 0.00 41 1023.9
20260503070204 56 199 0.0 4.0 0.00 0.00 0.00 41 1023.8
20260503070104 56 200 0.0 4.0 0.00 0.00 0.00 41 1023.9
20260503060304 53 0 0.0 0.0 0.00 0.00 0.00 47 1023.9
20260503060204 53 0 0.0 0.0 0.00 0.00 0.00 47 1023.9
20260503060125 53 0 0.0 0.0 0.00 0.00 0.00 48 1023.8
20260503055104 49 0 0.0 0.0 0.00 0.00 0.00 55 1023.9
20260503055004 49 0 0.0 0.0 0.00 0.00 0.00 55 1024.0
20260503054904 49 0 0.0 0.0 0.00 0.00 0.00 56 1023.8
20260503054804 49 0 0.0 0.0 0.00 0.00 0.00 56 1023.8
20260503054704 48 0 0.0 0.0 0.00 0.00 0.00 55 1023.8
20260503054604 48 0 0.0 0.0 0.00 0.00 0.00 56 1024.1
20260503054504 48 0 0.0 0.0 0.00 0.00 0.00 55 1023.9
20260503054404 48 0 0.0 0.0 0.00 0.00 0.00 55 1023.8
20260503054304 48 0 0.0 0.0 0.00 0.00 0.00 55 1023.9
20260503054204 48 0 0.0 0.0 0.00 0.00 0.00 56 1023.7
20260503054104 48 0 0.0 0.0 0.00 0.00 0.00 55 1024.0
20260503054004 48 0 0.0 0.0 0.00 0.00 0.00 55 1023.9
20260503053904 48 0 0.0 0.0 0.00 0.00 0.00 55 1023.9
20260503053804 48 0 0.0 0.0 0.00 0.00 0.00 56 1024.0
20260503053725 48 0 0.0 0.0 0.00 0.00 0.00 55 1023.8
20260503053625 48 0 0.0 0.0 0.00 0.00 0.00 55 1023.7
20260503053504 48 0 0.0 0.0 0.00 0.00 0.00 55 1023.7
20260503053404 47 0 0.0 0.0 0.00 0.00 0.00 55 1023.9
20260503053325 47 0 0.0 0.0 0.00 0.00 0.00 56 1023.7
20260503053204 47 0 0.0 0.0 0.00 0.00 0.00 57 1023.8
20260503053125 47 0 0.0 0.0 0.00 0.00 0.00 57 1023.9
20260503053025 47 0 0.0 0.0 0.00 0.00 0.00 56 1024.1
20260503052904 46 0 0.0 0.0 0.00 0.00 0.00 57 1023.8
20260503052804 46 0 0.0 0.0 0.00 0.00 0.00 57 1024.0
20260503052704 46 0 0.0 0.0 0.00 0.00 0.00 57 1023.9
20260503052604 46 0 0.0 0.0 0.00 0.00 0.00 57 1024.0
20260503052504 46 0 0.0 0.0 0.00 0.00 0.00 57 1023.7
20260503052404 46 0 0.0 0.0 0.00 0.00 0.00 57 1023.9
20260503052305 46 0 0.0 0.0 0.00 0.00 0.00 57 1024.0
20260503052204 46 0 0.0 0.0 0.00 0.00 0.00 58 1023.9
20260503052104 46 0 0.0 0.0 0.00 0.00 0.00 60 1024.1
20260503052004 46 0 0.0 0.0 0.00 0.00 0.00 61 1024.1
20260503051925 46 0 0.0 0.0 0.00 0.00 0.00 62 1024.0
20260503051804 46 0 0.0 0.0 0.00 0.00 0.00 62 1023.9
20260503051704 45 0 0.0 0.0 0.00 0.00 0.00 62 1024.2
20260503051604 45 0 0.0 0.0 0.00 0.00 0.00 61 1024.1
20260503051504 45 0 0.0 0.0 0.00 0.00 0.00 61 1024.0
20260503051404 45 0 0.0 0.0 0.00 0.00 0.00 62 1024.0
20260503051304 45 0 0.0 0.0 0.00 0.00 0.00 61 1024.0
20260503051225 44 0 0.0 0.0 0.00 0.00 0.00 61 1023.9
20260503051104 44 0 0.0 0.0 0.00 0.00 0.00 59 1023.8
20260503051004 44 0 0.0 0.0 0.00 0.00 0.00 59 1024.1
20260503050904 44 0 0.0 0.0 0.00 0.00 0.00 59 1024.0
20260503050804 44 0 0.0 0.0 0.00 0.00 0.00 60 1024.1
20260503050725 44 0 0.0 0.0 0.00 0.00 0.00 60 1024.1
20260503050604 43 0 0.0 0.0 0.00 0.00 0.00 60 1023.9
20260503050504 43 0 0.0 0.0 0.00 0.00 0.00 60 1023.9
20260503050425 43 0 0.0 0.0 0.00 0.00 0.00 60 1024.1
20260503050304 43 0 0.0 0.0 0.00 0.00 0.00 60 1024.0
20260503050204 43 0 0.0 0.0 0.00 0.00 0.00 59 1024.0
20260503050104 42 0 0.0 0.0 0.00 0.00 0.00 60 1023.8
20260503050025 42 0 0.0 0.0 0.00 0.00 0.00 60 1023.7
20260503045904 42 0 0.0 0.0 0.00 0.00 0.00 60 1023.9
20260503045804 42 0 0.0 0.0 0.00 0.00 0.00 60 1023.8
20260503045704 42 0 0.0 0.0 0.00 0.00 0.00 59 1024.0
20260503045604 42 0 0.0 0.0 0.00 0.00 0.00 59 1023.6
20260503045504 42 0 0.0 0.0 0.00 0.00 0.00 59 1023.7
20260503045404 42 0 0.0 0.0 0.00 0.00 0.00 59 1023.9
20260503045305 42 0 0.0 0.0 0.00 0.00 0.00 59 1023.7
20260503045225 42 0 0.0 0.0 0.00 0.00 0.00 59 1023.8
20260503045104 42 0 0.0 0.0 0.00 0.00 0.00 59 1023.9
20260503045026 42 0 0.0 0.0 0.00 0.00 0.00 59 1023.7
20260503044904 42 0 0.0 0.0 0.00 0.00 0.00 60 1023.7
20260503044804 42 0 0.0 0.0 0.00 0.00 0.00 59 1023.7
20260503044704 42 0 0.0 0.0 0.00 0.00 0.00 60 1023.9
20260503044604 42 0 0.0 0.0 0.00 0.00 0.00 60 1023.8
20260503044504 43 0 0.0 0.0 0.00 0.00 0.00 59 1023.9
20260503044404 43 0 0.0 0.0 0.00 0.00 0.00 58 1023.8
20260503044304 43 0 0.0 0.0 0.00 0.00 0.00 58 1023.8
20260503044204 43 0 0.0 0.0 0.00 0.00 0.00 59 1023.8
20260503044104 43 0 0.0 0.0 0.00 0.00 0.00 58 1023.9
20260503044025 44 0 0.0 0.0 0.00 0.00 0.00 59 1023.9
20260503043904 44 0 0.0 0.0 0.00 0.00 0.00 60 1023.7
20260503043804 44 0 0.0 0.0 0.00 0.00 0.00 59 1023.8
20260503043704 44 0 0.0 0.0 0.00 0.00 0.00 60 1024.0
20260503043604 43 0 0.0 0.0 0.00 0.00 0.00 61 1023.9
20260503043504 43 0 0.0 0.0 0.00 0.00 0.00 62 1023.9
20260503043404 43 0 0.0 0.0 0.00 0.00 0.00 62 1023.8
20260503043304 43 0 0.0 0.0 0.00 0.00 0.00 62 1024.0
20260503043204 43 0 0.0 0.0 0.00 0.00 0.00 61 1023.6
20260503043104 43 0 0.0 0.0 0.00 0.00 0.00 61 1023.7
20260503043004 43 0 0.0 0.0 0.00 0.00 0.00 61 1024.0
20260503042904 43 0 0.0 0.0 0.00 0.00 0.00 62 1023.9
20260503042804 43 0 0.0 0.0 0.00 0.00 0.00 62 1023.9
20260503042704 42 0 0.0 0.0 0.00 0.00 0.00 63 1024.0
20260503042604 42 0 0.0 0.0 0.00 0.00 0.00 63 1023.8
20260503042504 42 0 0.0 0.0 0.00 0.00 0.00 63 1023.7
20260503042404 42 0 0.0 0.0 0.00 0.00 0.00 65 1024.0
20260503042305 41 0 0.0 0.0 0.00 0.00 0.00 65 1023.8
20260503042204 41 0 0.0 0.0 0.00 0.00 0.00 67 1024.0
20260503042104 41 0 0.0 0.0 0.00 0.00 0.00 67 1023.7
20260503042004 40 0 0.0 0.0 0.00 0.00 0.00 68 1024.0
20260503041904 40 0 0.0 0.0 0.00 0.00 0.00 69 1023.9
20260503041804 40 0 0.0 0.0 0.00 0.00 0.00 70 1023.7
20260503041704 40 0 0.0 0.0 0.00 0.00 0.00 70 1023.9
20260503041604 40 0 0.0 0.0 0.00 0.00 0.00 70 1023.7
20260503041504 40 0 0.0 0.0 0.00 0.00 0.00 72 1023.9
20260503041425 40 0 0.0 0.0 0.00 0.00 0.00 72 1023.8
20260503041304 39 0 0.0 0.0 0.00 0.00 0.00 72 1023.7
20260503041204 39 0 0.0 0.0 0.00 0.00 0.00 72 1023.8
20260503041104 39 0 0.0 0.0 0.00 0.00 0.00 73 1023.9
20260503041004 39 0 0.0 0.0 0.00 0.00 0.00 73 1023.8
20260503040925 38 0 0.0 0.0 0.00 0.00 0.00 73 1023.8
20260503040804 38 0 0.0 0.0 0.00 0.00 0.00 74 1023.9
20260503040704 37 0 0.0 0.0 0.00 0.00 0.00 76 1023.7
20260503040604 36 0 0.0 0.0 0.00 0.00 0.00 77 1023.8
20260503040504 36 0 0.0 0.0 0.00 0.00 0.00 77 1023.9
20260503040404 36 0 0.0 0.0 0.00 0.00 0.00 77 1023.7
20260503040304 36 0 0.0 0.0 0.00 0.00 0.00 78 1023.8
20260503040225 36 0 0.0 0.0 0.00 0.00 0.00 78 1023.9
20260503040104 35 0 0.0 0.0 0.00 0.00 0.00 79 1024.0
20260503040004 35 0 0.0 0.0 0.00 0.00 0.00 79 1024.0
20260503035904 34 0 0.0 0.0 0.00 0.00 0.00 80 1023.9
20260503035804 34 0 0.0 0.0 0.00 0.00 0.00 81 1023.8
20260503035725 34 0 0.0 0.0 0.00 0.00 0.00 81 1023.8
20260503035604 34 0 0.0 0.0 0.00 0.00 0.00 81 1024.0
20260503035504 34 0 0.0 0.0 0.00 0.00 0.00 81 1023.9
20260503035404 34 0 0.0 0.0 0.00 0.00 0.00 81 1023.9
20260503035325 34 0 0.0 0.0 0.00 0.00 0.00 81 1023.6
20260503035204 34 0 0.0 0.0 0.00 0.00 0.00 81 1023.7
20260503035104 34 0 0.0 0.0 0.00 0.00 0.00 81 1023.8
20260503035004 34 0 0.0 0.0 0.00 0.00 0.00 81 1023.8
20260503034904 34 0 0.0 0.0 0.00 0.00 0.00 81 1023.8
20260503034804 34 0 0.0 0.0 0.00 0.00 0.00 81 1023.7
20260503034725 34 0 0.0 0.0 0.00 0.00 0.00 81 1023.8
20260503034604 33 0 0.0 0.0 0.00 0.00 0.00 81 1023.8
20260503034504 33 0 0.0 0.0 0.00 0.00 0.00 82 1023.8
20260503034404 33 0 0.0 0.0 0.00 0.00 0.00 83 1023.8
20260503034304 33 0 0.0 0.0 0.00 0.00 0.00 83 1023.7
20260503034204 33 0 0.0 0.0 0.00 0.00 0.00 83 1023.9
20260503034104 32 0 0.0 0.0 0.00 0.00 0.00 84 1023.8
20260503034025 32 0 0.0 0.0 0.00 0.00 0.00 84 1023.8
20260503033904 32 0 0.0 0.0 0.00 0.00 0.00 84 1023.9
20260503033804 32 0 0.0 0.0 0.00 0.00 0.00 84 1024.0
20260503033704 32 0 0.0 0.0 0.00 0.00 0.00 84 1023.7
20260503033625 32 0 0.0 0.0 0.00 0.00 0.00 84 1024.0
20260503033504 32 0 0.0 0.0 0.00 0.00 0.00 84 1023.9
20260503033404 31 0 0.0 0.0 0.00 0.00 0.00 84 1024.1
20260503033304 31 0 0.0 0.0 0.00 0.00 0.00 84 1024.0
20260503033225 31 0 0.0 0.0 0.00 0.00 0.00 84 1023.8
20260503033104 31 0 0.0 0.0 0.00 0.00 0.00 84 1023.8
20260503033025 31 0 0.0 0.0 0.00 0.00 0.00 84 1023.8
20260503032904 31 0 0.0 0.0 0.00 0.00 0.00 84 1023.9
20260503032804 31 0 0.0 0.0 0.00 0.00 0.00 84 1023.8
20260503032704 31 0 0.0 0.0 0.00 0.00 0.00 84 1023.7
20260503032625 31 0 0.0 0.0 0.00 0.00 0.00 84 1023.8
20260503032504 31 0 0.0 0.0 0.00 0.00 0.00 84 1023.7
20260503032404 31 0 0.0 0.0 0.00 0.00 0.00 85 1023.8
20260503032325 31 0 0.0 0.0 0.00 0.00 0.00 85 1023.6
20260503032204 31 0 0.0 0.0 0.00 0.00 0.00 85 1023.5
20260503032104 31 0 0.0 0.0 0.00 0.00 0.00 84 1023.6
20260503032004 31 0 0.0 0.0 0.00 0.00 0.00 84 1023.6
20260503031925 31 0 0.0 0.0 0.00 0.00 0.00 84 1023.5
20260503031804 31 0 0.0 0.0 0.00 0.00 0.00 84 1023.6
20260503031704 31 0 0.0 0.0 0.00 0.00 0.00 84 1023.6
20260503031604 31 0 0.0 0.0 0.00 0.00 0.00 84 1023.9
20260503031504 31 0 0.0 0.0 0.00 0.00 0.00 84 1023.8
20260503031404 30 0 0.0 0.0 0.00 0.00 0.00 84 1023.6
20260503031325 30 0 0.0 0.0 0.00 0.00 0.00 84 1023.6
20260503031204 30 0 0.0 0.0 0.00 0.00 0.00 84 1023.6
20260503031125 30 0 0.0 0.0 0.00 0.00 0.00 84 1023.6
20260503031025 30 0 0.0 0.0 0.00 0.00 0.00 84 1023.8
20260503030904 30 0 0.0 0.0 0.00 0.00 0.00 84 1023.7
20260503030804 30 0 0.0 0.0 0.00 0.00 0.00 85 1023.7
20260503030704 30 0 0.0 0.0 0.00 0.00 0.00 84 1023.6
20260503030604 30 0 0.0 0.0 0.00 0.00 0.00 84 1023.6
20260503030504 30 0 0.0 0.0 0.00 0.00 0.00 85 1023.7
20260503030404 30 0 0.0 0.0 0.00 0.00 0.00 85 1023.5
20260503030325 30 0 0.0 0.0 0.00 0.00 0.00 85 1023.6
20260503030225 30 0 0.0 0.0 0.00 0.00 0.00 85 1023.5
20260503030104 30 0 0.0 0.0 0.00 0.00 0.00 85 1023.9
20260503030004 30 0 0.0 0.0 0.00 0.00 0.00 86 1023.4
20260503025904 30 0 0.0 0.0 0.00 0.00 0.00 86 1023.7
20260503025804 30 0 0.0 0.0 0.00 0.00 0.00 85 1023.7
20260503025704 30 0 0.0 0.0 0.00 0.00 0.00 85 1023.6
20260503025604 30 0 0.0 0.0 0.00 0.00 0.00 85 1023.5
20260503025504 30 0 0.0 0.0 0.00 0.00 0.00 85 1023.6
20260503025404 30 0 0.0 0.0 0.00 0.00 0.00 85 1023.7
20260503025325 30 0 0.0 0.0 0.00 0.00 0.00 85 1023.5
20260503025225 29 0 0.0 0.0 0.00 0.00 0.00 85 1023.8
20260503025104 29 0 0.0 0.0 0.00 0.00 0.00 85 1023.4
20260503025004 29 0 0.0 0.0 0.00 0.00 0.00 85 1023.7
20260503024905 29 0 0.0 0.0 0.00 0.00 0.00 85 1023.7
20260503024804 29 0 0.0 0.0 0.00 0.00 0.00 85 1023.6
20260503024704 29 0 0.0 0.0 0.00 0.00 0.00 85 1023.4
20260503024604 29 0 0.0 0.0 0.00 0.00 0.00 85 1023.7
20260503024504 29 0 0.0 0.0 0.00 0.00 0.00 84 1023.7
20260503024404 29 0 0.0 0.0 0.00 0.00 0.00 85 1023.6
20260503024304 30 0 0.0 0.0 0.00 0.00 0.00 85 1023.6
20260503024204 30 0 0.0 0.0 0.00 0.00 0.00 85 1023.5
20260503024104 30 0 0.0 0.0 0.00 0.00 0.00 85 1023.6
20260503024004 30 0 0.0 0.0 0.00 0.00 0.00 85 1023.5
20260503023904 30 0 0.0 0.0 0.00 0.00 0.00 85 1023.5
20260503023804 30 0 0.0 0.0 0.00 0.00 0.00 85 1023.6
20260503023704 30 0 0.0 0.0 0.00 0.00 0.00 85 1023.6
20260503023625 30 0 0.0 0.0 0.00 0.00 0.00 85 1023.7
20260503023504 30 0 0.0 0.0 0.00 0.00 0.00 85 1023.5
20260503023404 30 0 0.0 0.0 0.00 0.00 0.00 85 1023.3
20260503023304 30 0 0.0 0.0 0.00 0.00 0.00 85 1023.6
20260503023225 30 0 0.0 0.0 0.00 0.00 0.00 85 1023.6
20260503023104 29 0 0.0 0.0 0.00 0.00 0.00 85 1023.6
20260503023004 29 0 0.0 0.0 0.00 0.00 0.00 85 1023.6
20260503022904 29 0 0.0 0.0 0.00 0.00 0.00 85 1023.7
20260503022804 29 0 0.0 0.0 0.00 0.00 0.00 85 1023.6
20260503022704 29 0 0.0 0.0 0.00 0.00 0.00 85 1023.7
20260503022604 29 0 0.0 0.0 0.00 0.00 0.00 85 1023.4
20260503022504 29 0 0.0 0.0 0.00 0.00 0.00 85 1023.7
20260503022404 29 0 0.0 0.0 0.00 0.00 0.00 84 1023.6
20260503022305 29 0 0.0 0.0 0.00 0.00 0.00 84 1023.6
20260503022204 29 0 0.0 0.0 0.00 0.00 0.00 84 1023.6
20260503022104 29 0 0.0 0.0 0.00 0.00 0.00 84 1023.7
20260503022004 29 0 0.0 0.0 0.00 0.00 0.00 84 1023.7
20260503021904 29 0 0.0 0.0 0.00 0.00 0.00 84 1023.6
20260503021804 29 0 0.0 0.0 0.00 0.00 0.00 84 1023.6
20260503021704 29 0 0.0 0.0 0.00 0.00 0.00 84 1023.8
20260503021604 29 0 0.0 0.0 0.00 0.00 0.00 84 1023.8
20260503021504 29 0 0.0 0.0 0.00 0.00 0.00 84 1023.5
20260503021404 29 0 0.0 0.0 0.00 0.00 0.00 84 1023.8
20260503021325 29 0 0.0 0.0 0.00 0.00 0.00 84 1023.5
20260503021204 29 0 0.0 0.0 0.00 0.00 0.00 84 1023.5
20260503021125 30 0 0.0 0.0 0.00 0.00 0.00 84 1023.5
20260503021004 30 0 0.0 0.0 0.00 0.00 0.00 84 1023.5
20260503020904 30 0 0.0 0.0 0.00 0.00 0.00 84 1023.6
20260503020825 29 0 0.0 0.0 0.00 0.00 0.00 84 1023.6
20260503020704 29 0 0.0 0.0 0.00 0.00 0.00 84 1023.5
20260503020604 29 0 0.0 0.0 0.00 0.00 0.00 84 1023.6
20260503020504 29 0 0.0 0.0 0.00 0.00 0.00 84 1023.7
20260503020404 29 0 0.0 0.0 0.00 0.00 0.00 84 1023.7
20260503020304 30 0 0.0 0.0 0.00 0.00 0.00 84 1023.7
20260503020204 30 0 0.0 0.0 0.00 0.00 0.00 84 1023.7
20260503020105 30 0 0.0 0.0 0.00 0.00 0.00 84 1023.4
20260503020004 29 0 0.0 0.0 0.00 0.00 0.00 84 1023.7
20260503015925 29 0 0.0 0.0 0.00 0.00 0.00 84 1023.8
20260503015804 29 0 0.0 0.0 0.00 0.00 0.00 83 1023.7
20260503015725 29 0 0.0 0.0 0.00 0.00 0.00 83 1023.7
20260503015604 30 0 0.0 0.0 0.00 0.00 0.00 83 1023.9
20260503015504 30 0 0.0 0.0 0.00 0.00 0.00 83 1023.7
20260503015425 30 0 0.0 0.0 0.00 0.00 0.00 83 1023.7
20260503015305 30 0 0.0 0.0 0.00 0.00 0.00 83 1023.6
20260503015225 30 0 0.0 0.0 0.00 0.00 0.00 83 1023.6
20260503015104 30 0 0.0 0.0 0.00 0.00 0.00 83 1023.6
20260503015025 30 0 0.0 0.0 0.00 0.00 0.00 83 1023.6
20260503014925 30 0 0.0 0.0 0.00 0.00 0.00 83 1023.6
20260503014804 30 0 0.0 0.0 0.00 0.00 0.00 83 1023.7
20260503014704 30 0 0.0 0.0 0.00 0.00 0.00 83 1023.5
20260503014604 30 0 0.0 0.0 0.00 0.00 0.00 83 1023.7
20260503014504 30 0 0.0 0.0 0.00 0.00 0.00 83 1023.5
20260503014404 30 0 0.0 0.0 0.00 0.00 0.00 83 1023.7
20260503014304 30 0 0.0 0.0 0.00 0.00 0.00 83 1023.4
20260503014204 30 0 0.0 0.0 0.00 0.00 0.00 83 1023.5
20260503014104 30 0 0.0 0.0 0.00 0.00 0.00 83 1023.7
20260503014004 30 0 0.0 0.0 0.00 0.00 0.00 83 1023.7
20260503013904 30 0 0.0 0.0 0.00 0.00 0.00 83 1023.5
20260503013804 30 0 0.0 0.0 0.00 0.00 0.00 83 1023.7
20260503013704 30 0 0.0 0.0 0.00 0.00 0.00 83 1023.7
20260503013604 30 0 0.0 0.0 0.00 0.00 0.00 83 1023.7
20260503013504 30 0 0.0 0.0 0.00 0.00 0.00 82 1023.7
20260503013404 30 0 0.0 0.0 0.00 0.00 0.00 82 1023.8
20260503013325 30 0 0.0 0.0 0.00 0.00 0.00 82 1023.8
20260503013204 30 0 0.0 0.0 0.00 0.00 0.00 82 1023.9
20260503013104 30 0 0.0 0.0 0.00 0.00 0.00 82 1023.7
20260503013025 30 0 0.0 0.0 0.00 0.00 0.00 83 1023.8
20260503012904 30 0 0.0 0.0 0.00 0.00 0.00 83 1023.9
20260503012804 30 0 0.0 0.0 0.00 0.00 0.00 82 1023.7
20260503012704 30 0 0.0 0.0 0.00 0.00 0.00 82 1023.6
20260503012604 30 0 0.0 0.0 0.00 0.00 0.00 83 1023.6
20260503012504 30 0 0.0 0.0 0.00 0.00 0.00 83 1023.7
20260503012404 30 0 0.0 0.0 0.00 0.00 0.00 82 1023.7
20260503012305 30 0 0.0 0.0 0.00 0.00 0.00 82 1023.6
20260503012204 30 0 0.0 0.0 0.00 0.00 0.00 82 1023.9
20260503012104 30 0 0.0 0.0 0.00 0.00 0.00 82 1023.8
20260503012005 30 0 0.0 0.0 0.00 0.00 0.00 82 1024.0
20260503011904 30 0 0.0 0.0 0.00 0.00 0.00 82 1023.7
20260503011804 30 0 0.0 0.0 0.00 0.00 0.00 82 1023.9
20260503011704 30 0 0.0 0.0 0.00 0.00 0.00 82 1023.6
20260503011604 30 0 0.0 0.0 0.00 0.00 0.00 82 1023.8
20260503011504 31 0 0.0 0.0 0.00 0.00 0.00 82 1023.8
20260503011404 31 0 0.0 0.0 0.00 0.00 0.00 82 1023.8
20260503011304 31 0 0.0 0.0 0.00 0.00 0.00 82 1023.8
20260503011225 31 0 0.0 0.0 0.00 0.00 0.00 82 1023.8
20260503011104 31 0 0.0 0.0 0.00 0.00 0.00 82 1023.8
20260503011004 31 0 0.0 0.0 0.00 0.00 0.00 82 1023.7
20260503010904 31 0 0.0 0.0 0.00 0.00 0.00 82 1023.8
20260503010804 31 0 0.0 0.0 0.00 0.00 0.00 82 1023.7
20260503010704 31 0 0.0 0.0 0.00 0.00 0.00 82 1023.8
20260503010604 31 0 0.0 0.0 0.00 0.00 0.00 82 1023.8
20260503010504 31 0 0.0 0.0 0.00 0.00 0.00 82 1023.8
20260503010404 31 0 0.0 0.0 0.00 0.00 0.00 82 1023.6
20260503010304 31 0 0.0 0.0 0.00 0.00 0.00 81 1023.7
20260503010204 31 0 0.0 0.0 0.00 0.00 0.00 82 1023.7
20260503010104 31 0 0.0 0.0 0.00 0.00 0.00 81 1023.8
20260503010004 31 0 0.0 0.0 0.00 0.00 0.00 81 1023.7
20260503005925 31 0 0.0 0.0 0.00 0.00 0.00 81 1023.7
20260503005803 31 0 0.0 0.0 0.00 0.00 0.00 80 1023.7
20260503005725 31 0 0.0 0.0 0.00 0.00 0.00 80 1023.8
20260503005625 31 0 0.0 0.0 0.00 0.00 0.00 80 1023.8
20260503005504 31 0 0.0 0.0 0.00 0.00 0.00 80 1023.8
20260503005404 31 0 0.0 0.0 0.00 0.00 0.00 80 1023.7
20260503005304 31 0 0.0 0.0 0.00 0.00 0.00 80 1023.6
20260503005204 31 0 0.0 0.0 0.00 0.00 0.00 80 1023.6
20260503005104 31 0 0.0 0.0 0.00 0.00 0.00 80 1023.8
20260503005004 31 0 0.0 0.0 0.00 0.00 0.00 80 1023.5
20260503004904 31 0 0.0 0.0 0.00 0.00 0.00 80 1023.7
20260503004804 31 0 0.0 0.0 0.00 0.00 0.00 80 1023.7
20260503004704 31 0 0.0 0.0 0.00 0.00 0.00 80 1023.9
20260503004604 31 0 0.0 0.0 0.00 0.00 0.00 80 1023.9
20260503004504 31 0 0.0 0.0 0.00 0.00 0.00 80 1023.9
20260503004404 32 0 0.0 0.0 0.00 0.00 0.00 80 1023.6
20260503004304 32 0 0.0 0.0 0.00 0.00 0.00 80 1023.8
20260503004204 32 0 0.0 0.0 0.00 0.00 0.00 80 1023.6
20260503004104 32 0 0.0 0.0 0.00 0.00 0.00 80 1023.8
20260503004004 32 0 0.0 0.0 0.00 0.00 0.00 80 1023.8
20260503003904 32 0 0.0 0.0 0.00 0.00 0.00 80 1023.8
20260503003804 32 0 0.0 0.0 0.00 0.00 0.00 80 1023.6
20260503003725 32 0 0.0 0.0 0.00 0.00 0.00 80 1023.9
20260503003604 32 0 0.0 0.0 0.00 0.00 0.00 80 1023.5
20260503003504 32 0 0.0 0.0 0.00 0.00 0.00 80 1023.9
20260503003404 32 0 0.0 0.0 0.00 0.00 0.00 80 1023.8
20260503003304 32 0 0.0 0.0 0.00 0.00 0.00 80 1023.9
20260503003204 32 0 0.0 0.0 0.00 0.00 0.00 80 1024.0
20260503003104 32 0 0.0 0.0 0.00 0.00 0.00 80 1023.8
20260503003024 32 0 0.0 0.0 0.00 0.00 0.00 80 1023.9
20260503002904 32 0 0.0 0.0 0.00 0.00 0.00 80 1023.7
20260503002804 32 0 0.0 0.0 0.00 0.00 0.00 80 1023.6
20260503002725 32 0 0.0 0.0 0.00 0.00 0.00 80 1023.8
20260503002604 32 0 0.0 0.0 0.00 0.00 0.00 80 1023.8
20260503002504 32 0 0.0 0.0 0.00 0.00 0.00 80 1023.8
20260503002404 32 0 0.0 0.0 0.00 0.00 0.00 81 1023.9
20260503002325 32 0 0.0 0.0 0.00 0.00 0.00 81 1023.7
20260503002204 31 0 0.0 0.0 0.00 0.00 0.00 81 1023.6
20260503002104 31 0 0.0 0.0 0.00 0.00 0.00 81 1023.8
20260503002025 31 0 0.0 0.0 0.00 0.00 0.00 81 1023.6
20260503001904 31 0 0.0 0.0 0.00 0.00 0.00 80 1023.8
20260503001804 31 0 0.0 0.0 0.00 0.00 0.00 81 1023.9
20260503001704 31 0 0.0 0.0 0.00 0.00 0.00 81 1023.8
20260503001604 31 0 0.0 0.0 0.00 0.00 0.00 81 1024.0
20260503001504 31 0 0.0 0.0 0.00 0.00 0.00 80 1023.8
20260503001425 31 0 0.0 0.0 0.00 0.00 0.00 80 1023.7
20260503001325 31 0 0.0 0.0 0.00 0.00 0.00 80 1023.8
20260503001204 31 0 0.0 0.0 0.00 0.00 0.00 80 1024.0
20260503001104 31 0 0.0 0.0 0.00 0.00 0.00 80 1023.9
20260503001004 31 0 0.0 0.0 0.00 0.00 0.00 80 1023.8
20260503000904 31 0 0.0 0.0 0.00 0.00 0.00 79 1023.9
20260503000804 31 0 0.0 0.0 0.00 0.00 0.00 79 1023.9
20260503000703 32 0 0.0 0.0 0.00 0.00 0.00 79 1024.0
20260503000604 32 0 0.0 0.0 0.00 0.00 0.00 79 1023.6
20260503000504 32 0 0.0 0.0 0.00 0.00 0.00 79 1023.9
20260503000404 32 0 0.0 0.0 0.00 0.00 0.00 79 1024.0
20260503000304 32 0 0.0 0.0 0.00 0.00 0.00 79 1023.8
20260503000226 32 0 0.0 0.0 0.00 0.00 0.00 79 1023.8
20260503000103 32 0 0.0 0.0 0.00 0.00 0.00 79 1024.1
20260503000004 32 0 0.0 0.0 0.00 0.00 0.00 79 1023.8
20260502235904 32 0 0.0 0.0 0.00 0.00 0.00 79 1023.9
20260502235804 32 0 0.0 0.0 0.00 0.00 0.00 79 1023.9
20260502235725 32 0 0.0 0.0 0.00 0.00 0.00 79 1023.7
20260502235603 32 0 0.0 0.0 0.00 0.00 0.00 79 1024.0
20260502235504 32 0 0.0 0.0 0.00 0.00 0.00 79 1024.0
20260502235404 32 0 0.0 0.0 0.00 0.00 0.00 79 1024.0
20260502235305 32 0 0.0 0.0 0.00 0.00 0.00 79 1023.7
20260502235204 32 0 0.0 0.0 0.00 0.00 0.00 80 1024.0
20260502235104 32 0 0.0 0.0 0.00 0.00 0.00 80 1023.7
20260502235004 32 0 0.0 0.0 0.00 0.00 0.00 80 1024.0
20260502234904 32 0 0.0 0.0 0.00 0.00 0.00 79 1023.9
20260502234804 32 0 0.0 0.0 0.00 0.00 0.00 79 1023.8
20260502234704 32 0 0.0 0.0 0.00 0.00 0.00 79 1023.8
20260502234625 32 0 0.0 0.0 0.00 0.00 0.00 79 1023.8
20260502234504 32 0 0.0 0.0 0.00 0.00 0.00 79 1024.0
20260502234404 32 0 0.0 0.0 0.00 0.00 0.00 79 1024.0
20260502234304 33 0 0.0 0.0 0.00 0.00 0.00 79 1023.9
20260502234204 33 0 0.0 0.0 0.00 0.00 0.00 78 1024.1
20260502234104 33 0 0.0 0.0 0.00 0.00 0.00 78 1024.0
20260502234004 33 0 0.0 0.0 0.00 0.00 0.00 78 1023.9
20260502233904 33 0 0.0 0.0 0.00 0.00 0.00 78 1023.8
20260502233825 33 0 0.0 0.0 0.00 0.00 0.00 78 1023.8
20260502233704 33 0 0.0 0.0 0.00 0.00 0.00 78 1023.8
20260502233604 33 0 0.0 0.0 0.00 0.00 0.00 78 1023.9
20260502233504 33 0 0.0 0.0 0.00 0.00 0.00 78 1024.0
20260502233404 33 0 0.0 0.0 0.00 0.00 0.00 78 1024.0
20260502233304 33 0 0.0 0.0 0.00 0.00 0.00 78 1023.9
20260502233225 33 0 0.0 0.0 0.00 0.00 0.00 78 1024.1
20260502233104 33 0 0.0 0.0 0.00 0.00 0.00 78 1024.0
20260502233004 33 0 0.0 0.0 0.00 0.00 0.00 78 1023.9
20260502232903 33 0 0.0 0.0 0.00 0.00 0.00 79 1024.0
20260502232804 33 0 0.0 0.0 0.00 0.00 0.00 79 1023.9
20260502232704 33 0 0.0 0.0 0.00 0.00 0.00 79 1024.0
20260502232604 33 0 0.0 0.0 0.00 0.00 0.00 79 1023.9
20260502232504 33 0 0.0 0.0 0.00 0.00 0.00 79 1024.1
20260502232426 33 0 0.0 0.0 0.00 0.00 0.00 79 1023.8
20260502232305 33 0 0.0 0.0 0.00 0.00 0.00 79 1023.9
20260502232204 33 0 0.0 0.0 0.00 0.00 0.00 79 1024.0
20260502232104 33 0 0.0 0.0 0.00 0.00 0.00 78 1024.0
20260502232004 33 0 0.0 0.0 0.00 0.00 0.00 78 1023.9
20260502231904 33 0 0.0 0.0 0.00 0.00 0.00 78 1024.0
20260502231804 34 0 0.0 0.0 0.00 0.00 0.00 78 1023.9
20260502231704 34 0 0.0 0.0 0.00 0.00 0.00 78 1024.2
20260502231604 34 0 0.0 0.0 0.00 0.00 0.00 78 1024.1
20260502231504 34 0 0.0 0.0 0.00 0.00 0.00 78 1024.1
20260502231404 34 0 0.0 0.0 0.00 0.00 0.00 78 1023.8
20260502231304 34 0 0.0 0.0 0.00 0.00 0.00 77 1024.0
20260502231204 34 0 0.0 0.0 0.00 0.00 0.00 77 1024.0
20260502231104 34 0 0.0 0.0 0.00 0.00 0.00 77 1023.9
20260502231004 34 0 0.0 0.0 0.00 0.00 0.00 77 1024.0
20260502230904 34 0 0.0 0.0 0.00 0.00 0.00 77 1024.1
20260502230804 34 0 0.0 0.0 0.00 0.00 0.00 77 1024.1
20260502230725 34 0 0.0 0.0 0.00 0.00 0.00 77 1024.0
20260502230604 34 0 0.0 0.0 0.00 0.00 0.00 77 1024.0
20260502230504 33 0 0.0 0.0 0.00 0.00 0.00 77 1024.1
20260502230404 33 0 0.0 0.0 0.00 0.00 0.00 78 1024.0
20260502230325 33 0 0.0 0.0 0.00 0.00 0.00 78 1024.3
20260502230204 33 0 0.0 0.0 0.00 0.00 0.00 79 1024.2
20260502230125 33 0 0.0 0.0 0.00 0.00 0.00 79 1024.2
20260502230004 33 0 0.0 0.0 0.00 0.00 0.00 80 1024.0
20260502225903 33 0 0.0 0.0 0.00 0.00 0.00 79 1024.0
20260502225804 33 0 0.0 0.0 0.00 0.00 0.00 79 1024.2
20260502225704 33 0 0.0 0.0 0.00 0.00 0.00 79 1024.1
20260502225604 33 0 0.0 0.0 0.00 0.00 0.00 79 1024.1
20260502225525 33 0 0.0 0.0 0.00 0.00 0.00 79 1024.1
20260502225404 33 0 0.0 0.0 0.00 0.00 0.00 79 1024.1
20260502225304 33 0 0.0 0.0 0.00 0.00 0.00 78 1024.2
20260502225203 33 0 0.0 0.0 0.00 0.00 0.00 78 1024.1
20260502225103 33 0 0.0 0.0 0.00 0.00 0.00 78 1024.1
20260502225004 34 0 0.0 0.0 0.00 0.00 0.00 78 1024.3
20260502224904 34 0 0.0 0.0 0.00 0.00 0.00 78 1024.1
20260502224825 34 0 0.0 0.0 0.00 0.00 0.00 78 1024.2
20260502224704 34 0 0.0 0.0 0.00 0.00 0.00 78 1024.2
20260502224604 34 0 0.0 0.0 0.00 0.00 0.00 78 1024.5
20260502224504 34 0 0.0 0.0 0.00 0.00 0.00 77 1024.1
20260502224404 34 0 0.0 0.0 0.00 0.00 0.00 77 1024.1
20260502224325 34 0 0.0 0.0 0.00 0.00 0.00 77 1024.3
20260502224225 34 0 0.0 0.0 0.00 0.00 0.00 76 1024.3
20260502224103 34 0 0.0 0.0 0.00 0.00 0.00 76 1024.3
20260502224004 34 0 0.0 0.0 0.00 0.00 0.00 76 1024.3
20260502223903 34 0 0.0 0.0 0.00 0.00 0.00 76 1024.3
20260502223804 34 0 0.0 0.0 0.00 0.00 0.00 75 1024.5
20260502223704 34 0 0.0 0.0 0.00 0.00 0.00 75 1024.2
20260502223603 34 0 0.0 0.0 0.00 0.00 0.00 75 1024.2
20260502223504 34 0 0.0 0.0 0.00 0.00 0.00 76 1024.5
20260502223404 34 0 0.0 0.0 0.00 0.00 0.00 76 1024.6
20260502223304 34 0 0.0 0.0 0.00 0.00 0.00 75 1024.5
20260502223204 34 0 0.0 0.0 0.00 0.00 0.00 75 1024.5
20260502223104 34 0 0.0 0.0 0.00 0.00 0.00 75 1024.7
20260502223004 34 0 0.0 0.0 0.00 0.00 0.00 75 1024.6
20260502222904 34 0 0.0 0.0 0.00 0.00 0.00 75 1024.3
20260502222804 34 0 0.0 0.0 0.00 0.00 0.00 75 1024.2
20260502222704 35 0 0.0 0.0 0.00 0.00 0.00 75 1024.6
20260502222603 35 0 0.0 0.0 0.00 0.00 0.00 75 1024.6
20260502222525 35 0 0.0 0.0 0.00 0.00 0.00 75 1024.6
20260502222404 35 0 0.0 0.0 0.00 0.00 0.00 75 1024.3
20260502222305 35 0 0.0 0.0 0.00 0.00 0.00 75 1024.1
20260502222204 35 0 0.0 0.0 0.00 0.00 0.00 75 1024.3
20260502222104 35 0 0.0 0.0 0.00 0.00 0.00 75 1024.5
20260502222024 35 0 0.0 0.0 0.00 0.00 0.00 75 1024.6
20260502221925 35 0 0.0 0.0 0.00 0.00 0.00 75 1024.2
20260502221825 35 0 0.0 0.0 0.00 0.00 0.00 75 1024.5
20260502221704 35 0 0.0 0.0 0.00 0.00 0.00 75 1024.5
20260502221604 35 0 0.0 0.0 0.00 0.00 0.00 75 1024.3
20260502221504 35 0 0.0 0.0 0.00 0.00 0.00 75 1024.7
20260502221403 35 0 0.0 0.0 0.00 0.00 0.00 75 1024.7
20260502221304 35 0 0.0 0.0 0.00 0.00 0.00 75 1024.5
20260502221225 35 0 0.0 0.0 0.00 0.00 0.00 75 1024.8
20260502221124 35 0 0.0 0.0 0.00 0.00 0.00 75 1024.6
20260502221005 35 0 0.0 0.0 0.00 0.00 0.00 75 1024.7
20260502220904 35 0 0.0 0.0 0.00 0.00 0.00 74 1024.8
20260502220825 35 0 0.0 0.0 0.00 0.00 0.00 74 1024.6
20260502220725 35 0 0.0 0.0 0.00 0.00 0.00 74 1024.7
20260502220603 35 0 0.0 0.0 0.00 0.00 0.00 74 1024.6
20260502220504 35 0 0.0 0.0 0.00 0.00 0.00 74 1024.7
20260502220404 35 0 0.0 0.0 0.00 0.00 0.00 73 1024.6
20260502220304 35 0 0.0 0.0 0.00 0.00 0.00 73 1024.6
20260502220204 35 0 0.0 0.0 0.00 0.00 0.00 73 1024.6
20260502220103 35 0 0.0 0.0 0.00 0.00 0.00 73 1024.3
20260502220004 35 0 0.0 0.0 0.00 0.00 0.00 73 1024.5
20260502215904 35 0 0.0 0.0 0.00 0.00 0.00 74 1024.5
20260502215825 35 0 0.0 0.0 0.00 0.00 0.00 74 1024.5
20260502215725 35 0 0.0 0.0 0.00 0.00 0.00 74 1024.7
20260502215604 35 0 0.0 0.0 0.00 0.00 0.00 73 1024.8
20260502215504 35 0 0.0 0.0 0.00 0.00 0.00 73 1024.6
20260502215403 35 0 0.0 0.0 0.00 0.00 0.00 74 1024.5
20260502215305 36 0 0.0 0.0 0.00 0.00 0.00 73 1024.6
20260502215225 36 0 0.0 0.0 0.00 0.00 0.00 73 1024.7
20260502215104 36 0 0.0 0.0 0.00 0.00 0.00 73 1024.7
20260502215004 36 0 0.0 0.0 0.00 0.00 0.00 73 1024.8
20260502214905 36 0 0.0 0.0 0.00 0.00 0.00 73 1024.9
20260502214804 36 0 0.0 0.0 0.00 0.00 0.00 73 1024.6
20260502214703 36 0 0.0 0.0 0.00 0.00 0.00 73 1024.7
20260502214604 36 0 0.0 0.0 0.00 0.00 0.00 73 1024.9
20260502214525 36 0 0.0 0.0 0.00 0.00 0.00 74 1024.8
20260502214404 36 0 0.0 0.0 0.00 0.00 0.00 74 1024.6
20260502214304 36 0 0.0 0.0 0.00 0.00 0.00 74 1024.7
20260502214204 36 0 0.0 0.0 0.00 0.00 0.00 74 1025.0
20260502214104 36 0 0.0 0.0 0.00 0.00 0.00 74 1024.7
20260502214004 36 0 0.0 0.0 0.00 0.00 0.00 74 1024.9
20260502213903 36 0 0.0 0.0 0.00 0.00 0.00 73 1024.8
20260502213803 36 0 0.0 0.0 0.00 0.00 0.00 73 1024.8
20260502213703 36 0 0.0 0.0 0.00 0.00 0.00 73 1024.8
20260502213604 36 0 0.0 0.0 0.00 0.00 0.00 73 1024.8
20260502213504 36 0 0.0 0.0 0.00 0.00 0.00 73 1024.8
20260502213404 36 0 0.0 0.0 0.00 0.00 0.00 73 1024.7
20260502213304 36 0 0.0 0.0 0.00 0.00 0.00 72 1024.8
20260502213204 36 0 0.0 0.0 0.00 0.00 0.00 73 1024.6
20260502213103 36 0 0.0 0.0 0.00 0.00 0.00 73 1025.0
20260502213004 36 0 0.0 0.0 0.00 0.00 0.00 73 1024.7
20260502212904 36 0 0.0 0.0 0.00 0.00 0.00 73 1024.8
20260502212804 36 0 0.0 0.0 0.00 0.00 0.00 73 1024.8
20260502212704 36 0 0.0 0.0 0.00 0.00 0.00 73 1024.9
20260502212603 36 0 0.0 0.0 0.00 0.00 0.00 73 1024.9
20260502212504 36 0 0.0 0.0 0.00 0.00 0.00 73 1024.7
20260502212404 36 0 0.0 0.0 0.00 0.00 0.00 73 1024.9
20260502212305 36 0 0.0 0.0 0.00 0.00 0.00 73 1024.9
20260502212204 36 0 0.0 0.0 0.00 0.00 0.00 73 1024.7
20260502212104 36 0 0.0 0.0 0.00 0.00 0.00 73 1024.8
20260502212004 36 0 0.0 0.0 0.00 0.00 0.00 73 1024.9
20260502211925 36 0 0.0 0.0 0.00 0.00 0.00 73 1024.6
20260502211804 36 0 0.0 0.0 0.00 0.00 0.00 73 1024.8
20260502211704 36 0 0.0 0.0 0.00 0.00 0.00 74 1024.8
20260502211604 36 0 0.0 0.0 0.00 0.00 0.00 74 1024.8
20260502211504 37 0 0.0 0.0 0.00 0.00 0.00 74 1024.9
20260502211404 37 0 0.0 0.0 0.00 0.00 0.00 74 1024.7
20260502211303 37 0 0.0 0.0 0.00 0.00 0.00 74 1024.9
20260502211204 37 0 0.0 0.0 0.00 0.00 0.00 74 1024.9
20260502211104 37 0 0.0 0.0 0.00 0.00 0.00 74 1025.0
20260502211025 37 0 0.0 0.0 0.00 0.00 0.00 74 1024.6
20260502210904 37 0 0.0 0.0 0.00 0.00 0.00 73 1024.8
20260502210804 37 0 0.0 0.0 0.00 0.00 0.00 73 1024.9
20260502210704 37 0 0.0 0.0 0.00 0.00 0.00 73 1024.7
20260502210625 37 0 0.0 0.0 0.00 0.00 0.00 73 1025.0
20260502210504 37 0 0.0 0.0 0.00 0.00 0.00 72 1024.8
20260502210404 37 0 0.0 0.0 0.00 0.00 0.00 72 1024.7
20260502210305 37 0 0.0 0.0 0.00 0.00 0.00 72 1024.7
20260502210204 37 0 0.0 0.0 0.00 0.00 0.00 72 1024.7
20260502210104 37 0 0.0 0.0 0.00 0.00 0.00 72 1024.8
20260502210004 36 0 0.0 0.0 0.00 0.00 0.00 73 1024.9
20260502205904 36 0 0.0 0.0 0.00 0.00 0.00 73 1024.9
20260502205825 36 0 0.0 0.0 0.00 0.00 0.00 73 1024.8
20260502205703 36 0 0.0 0.0 0.00 0.00 0.00 73 1024.8
20260502205625 36 0 0.0 0.0 0.00 0.00 0.00 73 1024.9
20260502205504 36 0 0.0 0.0 0.00 0.00 0.00 73 1024.9
20260502205404 36 0 0.0 0.0 0.00 0.00 0.00 73 1024.8
20260502205305 37 0 0.0 0.0 0.00 0.00 0.00 73 1024.7
20260502205204 37 0 0.0 0.0 0.00 0.00 0.00 73 1024.6
20260502205104 37 0 0.0 0.0 0.00 0.00 0.00 73 1024.8
20260502205004 37 0 0.0 0.0 0.00 0.00 0.00 72 1024.7
20260502204904 37 0 0.0 0.0 0.00 0.00 0.00 73 1024.8
20260502204804 37 0 0.0 0.0 0.00 0.00 0.00 72 1024.7
20260502204704 37 0 0.0 0.0 0.00 0.00 0.00 72 1024.7
20260502204604 37 0 0.0 0.0 0.00 0.00 0.00 72 1024.7
20260502204504 37 0 0.0 0.0 0.00 0.00 0.00 72 1024.9
20260502204425 37 0 0.0 0.0 0.00 0.00 0.00 72 1024.7
20260502204325 37 0 0.0 0.0 0.00 0.00 0.00 71 1024.8
20260502204203 37 0 0.0 0.0 0.00 0.00 0.00 71 1024.9
20260502204125 37 0 0.0 0.0 0.00 0.00 0.00 71 1024.6
20260502204004 37 0 0.0 0.0 0.00 0.00 0.00 70 1024.9
20260502203904 38 0 0.0 0.0 0.00 0.00 0.00 70 1024.7
20260502203825 38 0 0.0 0.0 0.00 0.00 0.00 70 1024.7
20260502203704 38 0 0.0 0.0 0.00 0.00 0.00 70 1024.7
20260502203604 38 0 0.0 0.0 0.00 0.00 0.00 69 1024.7
20260502203504 38 0 0.0 0.0 0.00 0.00 0.00 69 1024.8
20260502203404 38 0 0.0 0.0 0.00 0.00 0.00 69 1024.7
20260502203304 38 0 0.0 0.0 0.00 0.00 0.00 69 1024.7
20260502203204 38 0 0.0 0.0 0.00 0.00 0.00 69 1024.6
20260502203125 38 0 0.0 0.0 0.00 0.00 0.00 69 1024.8
20260502203025 38 0 0.0 0.0 0.00 0.00 0.00 69 1024.6
20260502202904 38 0 0.0 0.0 0.00 0.00 0.00 69 1024.7
20260502202804 38 0 0.0 0.0 0.00 0.00 0.00 69 1024.6
20260502202704 38 0 0.0 0.0 0.00 0.00 0.00 69 1024.7
20260502202604 38 0 0.0 0.0 0.00 0.00 0.00 69 1024.7
20260502202525 38 0 0.0 0.0 0.00 0.00 0.00 68 1024.5
20260502202425 38 0 0.0 0.0 0.00 0.00 0.00 68 1024.7
20260502202305 38 0 0.0 0.0 0.00 0.00 0.00 69 1024.7
20260502202204 38 0 0.0 0.0 0.00 0.00 0.00 68 1024.8
20260502202104 38 0 0.0 0.0 0.00 0.00 0.00 68 1024.7
20260502202004 38 0 0.0 0.0 0.00 0.00 0.00 68 1024.6
20260502201904 38 0 0.0 0.0 0.00 0.00 0.00 68 1024.7
20260502201804 38 0 0.0 0.0 0.00 0.00 0.00 68 1024.6
20260502201704 38 0 0.0 0.0 0.00 0.00 0.00 68 1024.6
20260502201604 38 0 0.0 0.0 0.00 0.00 0.00 68 1024.7
20260502201504 38 0 0.0 0.0 0.00 0.00 0.00 68 1024.7
20260502201404 39 0 0.0 0.0 0.00 0.00 0.00 68 1024.7
20260502201304 39 0 0.0 0.0 0.00 0.00 0.00 68 1024.7
20260502201204 39 0 0.0 0.0 0.00 0.00 0.00 68 1024.8
20260502201104 39 0 0.0 0.0 0.00 0.00 0.00 68 1024.9
20260502201025 39 0 0.0 0.0 0.00 0.00 0.00 67 1024.6
20260502200925 39 0 0.0 0.0 0.00 0.00 0.00 67 1024.6
20260502200804 39 0 0.0 0.0 0.00 0.00 0.00 67 1024.7
20260502200704 39 0 0.0 0.0 0.00 0.00 0.00 67 1024.7
20260502200604 39 0 0.0 0.0 0.00 0.00 0.00 67 1024.5
20260502200525 39 0 0.0 0.0 0.00 0.00 0.00 67 1024.7
20260502200404 39 0 0.0 0.0 0.00 0.00 0.00 66 1024.8
20260502200305 39 0 0.0 0.0 0.00 0.00 0.00 66 1024.7
20260502200225 39 0 0.0 0.0 0.00 0.00 0.00 66 1024.7
20260502200104 40 0 0.0 0.0 0.00 0.00 0.00 66 1024.6
20260502200025 40 0 0.0 0.0 0.00 0.00 0.00 66 1024.6
20260502195925 39 0 0.0 0.0 0.00 0.00 0.00 66 1024.6
20260502195804 39 0 0.0 0.0 0.00 0.00 0.00 66 1024.5
20260502195704 39 0 0.0 0.0 0.00 0.00 0.00 66 1024.7
20260502195625 39 0 0.0 0.0 0.00 0.00 0.00 66 1024.6
20260502195504 39 0 0.0 0.0 0.00 0.00 0.00 67 1024.7
20260502195404 39 0 0.0 0.0 0.00 0.00 0.00 66 1024.5
20260502195305 39 0 0.0 0.0 0.00 0.00 0.00 66 1024.6
20260502195204 39 0 0.0 0.0 0.00 0.00 0.00 66 1024.6
20260502195104 39 0 0.0 0.0 0.00 0.00 0.00 66 1024.6
20260502195004 39 0 0.0 0.0 0.00 0.00 0.00 66 1024.7
20260502194904 40 0 0.0 0.0 0.00 0.00 0.00 66 1024.7
20260502194803 40 0 0.0 0.0 0.00 0.00 0.00 66 1024.6
20260502194704 40 0 0.0 0.0 0.00 0.00 0.00 66 1024.6
20260502194603 40 0 0.0 0.0 0.00 0.00 0.00 66 1024.5
20260502194504 40 0 0.0 0.0 0.00 0.00 0.00 66 1024.5
20260502194425 40 0 0.0 0.0 0.00 0.00 0.00 66 1024.5
20260502194325 40 0 0.0 0.0 0.00 0.00 0.00 66 1024.6
20260502194204 40 0 0.0 0.0 0.00 0.00 0.00 66 1024.6
20260502194125 40 0 0.0 0.0 0.00 0.00 0.00 66 1024.7
20260502194004 40 0 0.0 0.0 0.00 0.00 0.00 66 1024.6
20260502193925 40 0 0.0 0.0 0.00 0.00 0.00 66 1024.6
20260502193804 40 0 0.0 0.0 0.00 0.00 0.00 66 1024.7
20260502193704 40 0 0.0 0.0 0.00 0.00 0.00 66 1024.7
20260502193604 40 0 0.0 0.0 0.00 0.00 0.00 65 1024.6
20260502193503 40 0 0.0 0.0 0.00 0.00 0.00 65 1024.7
20260502193404 41 0 0.0 0.0 0.00 0.00 0.00 65 1024.7
20260502193304 41 0 0.0 0.0 0.00 0.00 0.00 65 1024.6
20260502193204 41 0 0.0 0.0 0.00 0.00 0.00 65 1024.8
20260502193104 41 0 0.0 0.0 0.00 0.00 0.00 65 1024.5
20260502193003 41 0 0.0 0.0 0.00 0.00 0.00 65 1024.7
20260502192903 41 0 0.0 0.0 0.00 0.00 0.00 65 1024.7
20260502192804 41 0 0.0 0.0 0.00 0.00 0.00 65 1024.7
20260502192704 41 0 0.0 0.0 0.00 0.00 0.00 64 1024.6
20260502192625 41 0 0.0 0.0 0.00 0.00 0.00 64 1024.6
20260502192525 41 0 0.0 0.0 0.00 0.00 0.00 64 1024.7
20260502192404 41 0 0.0 0.0 0.00 0.00 0.00 63 1024.7
20260502192305 41 0 0.0 0.0 0.00 0.00 0.00 63 1024.7
20260502192225 41 0 0.0 0.0 0.00 0.00 0.00 63 1024.8
20260502192104 41 0 0.0 0.0 0.00 0.00 0.00 62 1024.5
20260502192004 41 0 0.0 0.0 0.00 0.00 0.00 62 1024.7
20260502191903 42 0 0.0 0.0 0.00 0.00 0.00 62 1024.7
20260502191825 42 0 0.0 0.0 0.00 0.00 0.00 62 1024.5
20260502191704 42 0 0.0 0.0 0.00 0.00 0.00 61 1024.7
20260502191604 42 0 0.0 0.0 0.00 0.00 0.00 61 1024.3
20260502191504 42 0 0.0 0.0 0.00 0.00 0.00 61 1024.7
20260502191425 42 0 0.0 0.0 0.00 0.00 0.00 61 1024.6
20260502191304 42 0 0.0 0.0 0.00 0.00 0.00 61 1024.5
20260502191203 42 0 0.0 0.0 0.00 0.00 0.00 61 1024.5
20260502191104 42 0 0.0 0.0 0.00 0.00 0.00 61 1024.8
20260502191025 42 0 0.0 0.0 0.00 0.00 0.00 61 1024.6
20260502190904 42 0 0.0 0.0 0.00 0.00 0.00 62 1024.7
20260502190804 42 0 0.0 0.0 0.00 0.00 0.00 62 1024.6
20260502190704 42 0 0.0 0.0 0.00 0.00 0.00 62 1024.6
20260502190603 42 0 0.0 0.0 0.00 0.00 0.00 62 1024.6
20260502190525 42 0 0.0 0.0 0.00 0.00 0.00 62 1024.5
20260502190404 42 0 0.0 0.0 0.00 0.00 0.00 62 1024.7
20260502190304 42 0 0.0 0.0 0.00 0.00 0.00 62 1024.3
20260502190204 42 0 0.0 0.0 0.00 0.00 0.00 62 1024.7
20260502190104 42 0 0.0 0.0 0.00 0.00 0.00 61 1024.6
20260502190004 42 0 0.0 0.0 0.00 0.00 0.00 61 1024.7
20260502185904 42 0 0.0 0.0 0.00 0.00 0.00 61 1024.6
20260502185804 42 0 0.0 0.0 0.00 0.00 0.00 60 1024.7
20260502185704 42 0 0.0 0.0 0.00 0.00 0.00 60 1024.6
20260502185604 42 0 0.0 0.0 0.00 0.00 0.00 60 1024.7
20260502185504 42 0 0.0 0.0 0.00 0.00 0.00 60 1024.8
20260502185404 42 0 0.0 0.0 0.00 0.00 0.00 60 1024.8
20260502185305 42 0 0.0 0.0 0.00 0.00 0.00 60 1024.5
20260502185203 42 0 0.0 0.0 0.00 0.00 0.00 60 1024.8
20260502185104 42 0 0.0 0.0 0.00 0.00 0.00 60 1024.8
20260502185003 42 0 0.0 0.0 0.00 0.00 0.00 60 1024.3
20260502184925 43 0 0.0 0.0 0.00 0.00 0.00 60 1024.5
20260502184804 43 0 0.0 0.0 0.00 0.00 0.00 59 1024.5
20260502184703 43 0 0.0 0.0 0.00 0.00 0.00 59 1024.3
20260502184604 43 0 0.0 0.0 0.00 0.00 0.00 59 1024.5
20260502184504 43 0 0.0 0.0 0.00 0.00 0.00 59 1024.6
20260502184404 43 0 0.0 0.0 0.00 0.00 0.00 59 1024.5
20260502184304 43 0 0.0 0.0 0.00 0.00 0.00 59 1024.6
20260502184204 43 0 0.0 0.0 0.00 0.00 0.00 59 1024.5
20260502184104 43 0 0.0 0.0 0.00 0.00 0.00 59 1024.3
20260502184003 43 0 0.0 0.0 0.00 0.00 0.00 59 1024.6
20260502183904 43 0 0.0 0.0 0.00 0.00 0.00 59 1024.3
20260502183825 43 0 0.0 0.0 0.00 0.00 0.00 59 1024.5
20260502183725 43 0 0.0 0.0 0.00 0.00 0.00 59 1024.5
20260502183603 43 0 0.0 0.0 0.00 0.00 0.00 59 1024.2
20260502183404 43 0 0.0 0.0 0.00 0.00 0.00 58 1024.5
20260502183304 43 0 0.0 0.0 0.00 0.00 0.00 58 1024.6
20260502183204 43 0 0.0 0.0 0.00 0.00 0.00 58 1024.5
20260502183103 43 0 0.0 0.0 0.00 0.00 0.00 58 1024.6
20260502183004 43 0 0.0 0.0 0.00 0.00 0.00 58 1024.3